Location: Cedarville Mobile Home Park
(38.5815°N, 75.0860°W)
Time: 05:13:07
(UTC+00:00)

Tiangong - Visible Passes

Search period start: 18 January 2026 00:00
Search period end: 28 January 2026 00:00
Orbit: 378 x 394 km, 41.5° (Epoch: 17 January)

Date Brightness Start Highest point End Pass type
(mag) Time Alt. Az. Time Alt. Az. Time Alt. Az.
18 Jan 1.1 09:48:35 13° ESE 09:48:35 13° ESE 09:49:30 10° ESE visible
18 Jan -2.0 11:20:53 10° WSW 11:24:03 76° SSE 11:27:15 10° ENE visible
19 Jan -1.3 10:24:50 46° SSE 10:24:50 46° SSE 10:27:53 10° E visible
20 Jan -2.2 11:00:52 30° W 11:02:16 72° NNW 11:05:28 10° ENE visible
21 Jan 0.1 10:04:30 26° ENE 10:04:30 26° ENE 10:06:04 10° ENE visible
21 Jan -1.7 11:36:46 10° W 11:39:52 48° N 11:42:59 10° ENE visible
22 Jan -2.0 10:40:15 54° NNW 10:40:23 54° N 10:43:31 10° ENE visible
23 Jan 1.2 09:43:40 13° ENE 09:43:40 13° ENE 09:44:02 10° ENE visible
23 Jan -1.6 11:15:53 18° WNW 11:17:56 47° N 11:21:03 10° E visible
24 Jan -0.8 10:19:14 36° NE 10:19:14 36° NE 10:21:28 10° ENE visible
25 Jan -1.8 10:54:44 33° NW 10:55:51 55° N 10:58:59 10° E visible
26 Jan 0.4 09:58:00 21° ENE 09:58:00 21° ENE 09:59:18 10° E visible
26 Jan -2.1 11:30:13 11° WNW 11:33:11 77° SSW 11:36:21 10° ESE visible
27 Jan -2.2 10:33:27 71° N 10:33:35 73° NNE 10:36:45 10° E visible
